#timestamp,LO_Frequency,Hit,StdDev 
1542870015.0,286047003.2,N
1542870015.9,286047003.2,N
1542870035.8,286047004.2,N
1542870055.6,286047004.2,N
1542870075.4,286047000.2,N
1542870095.3,286047001.0,N
1542870115.1,286046998.9,N
1542870135.9,286046997.9,N
1542870155.7,286046995.0,N
1542870175.5,286046997.1,N
1542870195.4,286046997.4,N
1542870215.2,286046999.8,N
1542870235.0,286047000.1,N
1542870235.9,286047000.1,N
1542870255.8,286047001.5,N
1542870275.6,286047002.3,N
1542870295.5,286047002.5,N
1542870315.3,286046999.8,N
1542870335.1,286047000.7,N
1542870355.9,286046999.1,N
1542870375.7,286047002.3,N
1542870395.5,286047003.7,N
1542870415.4,286047006.0,N
1542870435.2,286047005.8,N
1542870455.1,286047005.0,N
1542870456.0,286047005.0,N
1542870475.8,286047006.5,N
1542870495.6,286047006.2,N
1542870515.5,286047011.9,Y
1542870535.3,286047010.5,P
1542870555.1,286047011.4,N
1542870575.9,286047012.8,N
1542870595.7,286047016.6,Y
1542870615.6,286047008.4,P
1542870635.4,286047008.2,P
1542870655.2,286047009.0,P
1542870675.1,286047008.1,Y
1542870676.0,286047008.1,P
1542870695.8,286047001.5,P
1542870715.6,286047003.5,N
1542870735.5,286047005.8,N
1542870755.3,286047005.7,N
1542870775.2,286047004.9,N
1542870795.9,286047007.4,Y
1542870815.7,286047002.5,P
1542870835.6,286047002.0,N
1542870855.4,286047003.3,N
1542870875.2,286047004.9,Y
1542870895.1,286047004.2,P
1542870896.0,286047004.2,P
1542870915.8,286047007.6,P
1542870935.7,286047006.1,Y
1542870955.5,286047003.4,P
1542870975.3,286047006.2,P
1542870995.2,286047009.0,P
1542871015.0,286047010.3,Y
1542871015.9,286047010.3,P
1542871035.8,286047004.5,N
1542871055.6,286047006.6,N
1542871075.4,286047010.2,Y
1542871095.3,286047004.1,P
1542871115.1,286047005.7,P
1542871135.8,286047005.8,P
1542871155.7,286047004.6,Y
1542871175.5,286047000.3,P
1542871195.4,286047000.4,N
1542871215.2,286046999.8,N
1542871235.0,286047000.0,N
1542871235.9,286047000.0,N
1542871255.8,286046999.9,N
1542871275.6,286046998.6,N
1542871295.4,286046999.4,N
1542871315.3,286046997.5,N
1542871335.1,286046995.9,N
1542871355.9,286046996.7,N
1542871375.7,286046996.7,N
1542871395.5,286046997.2,N
1542871415.4,286047000.7,N
1542871435.2,286046997.1,N
1542871455.0,286046993.7,N
1542871455.9,286046993.7,N
1542871475.8,286046992.2,N
1542871495.6,286046992.3,N
1542871515.4,286046990.5,N
1542871535.3,286046990.7,N
1542871555.1,286046990.8,N
1542871575.9,286046990.2,N
1542871595.7,286046990.3,N
1542871615.5,286046993.1,N
1542871635.4,286046990.1,N
1542871655.2,286046990.3,N
1542871675.0,286046992.0,N
1542871675.9,286046992.0,N
1542871695.8,286046991.9,N
1542871715.6,286046991.9,N
1542871735.5,286046993.7,N
1542871755.3,286046995.1,N
1542871775.1,286046997.4,N
1542871795.9,286046999.2,N
1542871815.7,286046998.7,N
1542871835.5,286046998.2,N
1542871855.4,286046998.9,N
1542871875.2,286046997.1,N
1542871895.1,286046995.5,N
1542871896.0,286046995.5,N
1542871915.8,286046993.8,N
1542871935.6,286046992.2,N
1542871955.5,286046994.2,N
1542871975.3,286046992.3,N
1542871995.1,286046993.5,N
1542872015.9,286046992.7,N
1542872035.7,286046993.0,N
1542872055.6,286046989.3,Y
1542872075.4,286046995.8,P
1542872095.2,286046996.1,P
1542872115.1,286046996.4,P
1542872116.0,286046996.4,Y
1542872135.8,286046998.2,P
1542872155.6,286046998.6,N
1542872175.5,286046998.6,N
1542872195.3,286046999.6,N
1542872215.2,286046999.6,N
1542872235.9,286046997.0,N
1542872255.7,286046995.2,Y
1542872275.6,286046997.6,P
1542872295.4,286046997.4,P
1542872315.2,286046997.5,P
1542872335.1,286046997.1,Y
1542872336.0,286046997.1,P
1542872355.8,286046997.3,P
1542872375.7,286046996.2,P
1542872395.5,286046996.5,Y
1542872415.3,286047003.1,P
1542872435.2,286047002.6,N
1542872455.0,286047002.8,N
1542872455.9,286047002.8,N
1542872475.7,286046998.1,N
1542872495.6,286047001.1,N
1542872515.4,286046996.5,N
1542872535.3,286046998.9,N
1542872555.1,286046999.6,N
1542872556.0,286046999.6,N
1542872575.8,286046998.7,N
1542872595.7,286046998.3,N
1542872615.5,286046997.2,N
1542872635.3,286046997.7,N
1542872655.2,286046995.4,N
1542872675.0,286046997.7,N
1542872675.9,286046997.7,N
1542872695.8,286046996.5,N
1542872715.6,286046995.1,N
1542872735.4,286046993.7,N
1542872755.3,286046994.6,N
1542872775.1,286046991.7,Y
1542872795.8,286046995.2,P
1542872815.7,286046995.4,N
1542872835.5,286046994.9,P
1542872855.4,286046995.0,Y
1542872875.2,286047004.4,P
1542872895.0,286047001.8,N
1542872895.9,286047001.8,N
1542872915.8,286047006.3,N
1542872935.6,286047009.2,N
1542872955.4,286047006.9,N
1542872975.3,286047004.9,N
1542872995.1,286047005.0,N
1542873015.9,286047007.3,N
1542873035.7,286047004.5,N
1542873055.5,286047002.9,N
1542873075.4,286047001.3,N
1542873095.2,286047001.8,N
1542873115.0,286047001.8,N
1542873116.0,286047001.8,N
1542873135.8,286047002.4,N
1542873155.6,286047000.9,N
1542873175.5,286046999.1,N
1542873195.3,286046996.7,N
1542873215.1,286046996.9,N
1542873235.9,286046996.8,N
1542873255.7,286046995.3,N
1542873275.5,286046997.7,N
1542873295.4,286046999.3,N
1542873315.2,286046996.7,N
1542873335.1,286046999.4,N
1542873336.0,286046999.4,N
1542873355.8,286046996.1,N
1542873375.6,286046995.7,N
1542873395.5,286046993.9,N
1542873415.3,286046993.9,N
1542873435.1,286046992.9,N
1542873455.9,286046990.3,N
1542873475.7,286046993.2,N
1542873495.6,286046991.2,N
1542873515.4,286046988.6,N
1542873535.2,286046987.6,N
1542873555.1,286046986.2,N
1542873556.0,286046986.2,N
1542873575.8,286046984.7,Y
1542873595.6,286046985.9,P
